カタログに戻る

STARLINK-36926

運用中通信VLEO
NORAD 67999·PAYLOAD·🇺🇸 United States

打ち上げ Feb 27, 2026 から Vandenberg Space Force Base

Loading…

次のパス (今後24時間)

TLE

最新Source: CelesTrak SupGP

元期: Sep 15, 2026, 03:30 UTC

1 67999C 26039P   26258.14631944 -.00029209  00000+0 -10577-2 0  2588
2 67999  43.0018  58.5850 0001453 269.4390  64.6577 15.27600540    11

AllMySatでSTARLINK-36926をリアルタイム追跡

Download on the App Store